Location: Newark
(6.1731°S, 35.7419°E)
Time: 09:48:18
(UTC+00:00)

Altair - Pass Details

Date: 24 February 2020
Orbit: 1501 x 1682 km, 47.2° (Epoch: 07 April)

Event Time Altitude Azimuth Distance (km) Brightness Sun altitude
Rises 16:36:42 0° 200° (SSW) 4,686 10.5 -10.3°
Reaches altitude 10° 16:40:40 10° 186° (S) 3,682 9.7 -11.3°
Maximum altitude 16:47:36 23° 136° (SE) 2,760 8.5 -13.0°
Enters shadow 16:52:25 15° 98° (E) 3,233 8.6 -14.2°
